RH
25 36 41 37 37 42 52 60 84 83 78 75 74 74 75 64 55 66 69 71 80 71 75 82 81 70 65 61 68 74 78 78 76 72 64 65 65 65 70 71 88 83 70
23 35 37 35 38 45 60 77 83 78 84 85 81 80 79 69 63 72 72 74 77 73 76 80 81 68 71 72 76 75 79 79 77 74 71 56 71 72 75 79 92 65 62
20 39 35 36 41 49 74 84 81 81 82 82 86 86 84 71 72 70 68 73 77 78 79 83 76 71 70 73 75 70 76 79 78 78 85 93 83 80 80 82 79 75 66
31 41 36 35 38 50 71 84 87 86 86 86 88 84 78 76 74 74 75 76 79 82 84 88 70 72 70 73 73 72 73 73 80 84 100 99 91 87 89 85 85 79 77
38 38 40 37 40 46 59 82 83 84 84 86 90 85 81 80 81 72 69 69 70 81 88 94 79 72 69 70 69 72 72 75 73 96 99 98 78 79 83 88 90 88 87
40 40 36 39 42 46 52 80 84 87 90 86 88 88 82 82 82 75 64 58 59 73 90 96 90 78 72 73 73 74 78 78 88 100 92 89 81 78 77 78 82 87 88
38 36 37 40 44 45 50 53 73 86 86 85 88 85 82 82 84 84 64 70 76 76 91 99 98 95 86 79 81 78 78 78 90 89 89 82 83 81 79 79 80 82 83
37 38 39 41 42 43 41 57 70 80 84 82 84 81 81 84 89 90 79 75 73 72 91 100 94 87 78 78 76 83 75 72 86 90 90 88 88 84 84 87 87 88 88
41 43 41 44 41 43 55 66 72 77 89 84 79 81 85 88 85 90 96 90 77 76 76 98 96 95 88 70 66 70 72 74 86 88 90 89 90 90 93 94 95 95 95
46 46 48 48 45 86 83 69 74 76 85 82 80 89 83 81 86 85 86 86 95 94 99 97 97 96 87 75 82 76 76 82 91 91 96 100 94 98 98 99 100 99 100
51 51 49 48 59 93 91 75 74 81 81 87 89 90 95 88 98 81 72 80 91 99 97 89 80 83 86 88 89 94 91 90 95 100 100 97 99 98 98 100 99 100 99
53 55 57 59 69 70 73 86 75 95 96 96 91 98 97 90 90 81 100 95 97 94 97 96 88 93 86 85 99 98 95 97 100 100 100 100 99 97 98 99 99 99 98
55 57 60 60 69 75 73 72 91 97 88 88 91 99 98 85 76 81 83 99 100 99 92 92 97 97 100 100 100 100 100 100 100 100 100 100 99 99 100 99 100 99 97
57 58 65 62 65 72 85 95 90 88 86 89 89 92 100 95 74 65 84 82 99 96 93 94 92 100 88 86 95 87 92 96 100 100 100 96 97 97 80 72 53 50 47
62 57 64 65 62 63 77 99 98 91 90 92 95 92 93 96 91 85 79 87 91 92 98 90 86 88 80 80 69 87 97 97 96 96 96 96 95 98 98 77 76 56 44
64 56 67 70 74 66 83 99 97 98 95 98 99 97 100 100 98 89 89 95 98 99 100 87 86 84 83 72 62 62 76 95 97 93 94 97 99 98 96 100 97 80 69
47 58 75 80 84 72 96 99 99 92 98 100 100 100 98 100 99 100 90 91 98 95 96 100 94 88 84 77 68 70 73 85 87 85 80 83 70 54 55 65 76 75 68
68 64 94 82 86 82 88 100 89 93 97 96 89 91 100 100 100 100 100 100 100 100 100 96 90 88 83 75 72 80 90 95 87 75 65 52 45 39 26 26 51 70 68
76 94 100 82 87 88 86 100 90 92 85 81 73 72 90 100 98 95 100 100 99 93 98 91 90 86 78 70 70 79 94 93 86 78 69 65 55 39 24 12 10 17 46
95 95 100 94 92 95 89 100 99 94 75 63 59 53 55 92 93 91 68 65 79 85 94 93 91 81 66 60 81 100 100 100 100 95 87 80 61 45 20 10 9 9 11
100 98 99 100 92 99 91 91 99 94 67 60 49 46 47 57 80 61 54 40 42 66 66 83 77 61 58 61 54 100 99 98 98 99 94 74 53 32 15 11 10 10 9
99 100 100 100 99 99 93 82 92 92 69 56 53 53 50 48 52 58 48 33 25 31 43 46 45 55 59 78 73 88 98 96 99 95 82 61 35 18 14 13 12 11 11
100 100 100 100 99 100 100 89 87 96 83 60 55 58 59 51 43 32 26 22 19 18 18 20 25 28 31 58 66 58 70 59 82 76 58 35 22 17 15 14 13 13 13
100 100 100 100 98 100 99 89 85 86 88 71 59 61 56 54 45 32 25 22 20 19 18 18 20 24 25 32 50 24 22 19 39 34 34 24 18 18 17 17 16 16 15
100 100 100 100 100 99 99 93 87 84 92 86 72 72 63 55 52 44 32 26 24 21 19 18 18 20 21 21 25 23 19 19 20 23 30 24 21 19 19 19 18 18 18
100 100 100 100 100 98 98 100 92 88 85 94 85 81 72 60 57 53 39 32 26 23 21 20 21 23 24 30 26 26 18 21 25 28 36 37 32 25 23 22 22 22 23
Wind_Speed
11 17 19 19 17 17 16 15 12 13 11 12 14 15 15 14 14 13 13 13 14 17 17 17 18 17 16 15 17 19 19 21 22 23 22 24 24 25 25 26 25 25 25
9 18 19 19 17 17 16 15 13 12 13 11 13 15 15 14 14 14 14 14 15 18 18 18 19 20 18 18 20 20 20 22 23 23 23 24 24 25 26 25 25 26 25
10 18 19 18 17 18 15 14 14 13 12 12 13 13 13 14 15 15 15 15 15 18 18 20 19 21 20 20 21 21 22 23 25 25 24 22 24 23 25 24 26 25 25
13 17 19 18 17 18 15 16 16 15 14 14 15 14 14 14 14 13 12 13 15 17 18 21 23 23 22 22 22 22 23 24 24 24 19 20 24 23 24 25 25 25 25
16 17 17 17 15 15 16 16 17 16 15 15 15 15 15 14 15 16 14 16 13 18 19 22 26 26 25 24 22 24 24 24 26 22 20 20 23 24 24 24 24 24 24
18 18 17 17 15 15 15 15 16 17 15 15 14 14 14 15 16 20 20 26 23 22 22 23 28 28 27 26 26 25 24 25 22 21 20 22 23 23 22 23 22 21 21
20 19 18 17 15 14 14 16 17 18 16 14 14 15 16 17 19 21 20 19 21 24 24 29 30 32 31 28 25 25 24 23 22 22 23 22 24 23 22 22 21 20 18
20 20 19 17 15 14 14 15 16 17 17 16 15 15 15 16 19 20 23 21 22 34 25 36 34 34 33 30 24 22 22 21 22 21 22 23 22 22 22 23 22 22 22
22 21 19 17 14 14 14 15 16 16 16 15 17 16 14 16 20 21 22 22 26 24 38 53 42 32 33 34 28 22 22 20 23 23 24 24 24 25 27 26 26 25 25
24 22 19 18 14 13 11 13 14 14 15 17 15 15 16 15 18 20 22 21 29 25 32 35 34 31 32 33 29 26 27 26 25 26 26 27 27 27 26 25 23 24 23
25 22 21 17 15 12 11 13 14 11 12 11 13 13 14 15 15 14 22 25 21 33 35 27 29 32 31 28 30 29 27 29 26 27 31 25 24 22 21 21 20 19 18
27 25 21 18 17 15 14 13 14 11 9 10 10 10 13 14 15 4 19 36 40 32 30 27 29 29 27 30 32 30 26 23 22 21 23 22 20 17 17 17 16 15 13
28 27 24 21 19 17 17 15 13 11 9 9 10 13 18 16 15 16 10 23 44 40 36 33 31 25 35 30 24 24 24 21 24 22 17 16 14 15 16 15 14 12 12
29 28 25 22 20 18 18 17 13 11 10 9 11 12 19 20 15 13 24 20 24 42 35 30 26 27 19 21 23 23 24 26 25 23 19 16 14 11 9 11 11 11 10
27 29 27 24 22 19 19 20 16 13 12 11 16 14 17 15 17 17 23 23 17 17 24 26 29 28 28 27 23 21 20 21 21 22 18 14 13 14 15 14 14 11 9
27 30 29 27 23 19 20 21 19 17 15 16 17 17 15 13 16 20 26 23 20 20 29 30 30 28 30 30 27 24 22 20 19 19 18 16 16 15 16 15 14 12 12
26 29 31 29 25 21 23 23 21 19 18 16 15 15 14 13 15 22 24 24 25 28 29 31 30 30 29 28 26 25 24 21 19 16 14 12 13 13 11 11 11 11 11
25 30 32 32 28 24 25 25 22 20 19 18 16 16 17 16 19 23 27 29 33 31 32 30 29 29 28 28 28 26 24 22 18 15 15 13 11 9 8 8 8 10 9
26 29 33 36 33 29 24 27 23 21 21 19 20 21 20 20 21 23 24 29 29 29 29 30 30 29 29 28 27 26 25 22 20 17 14 11 9 7 6 6 6 7 8
24 27 34 38 37 33 28 29 26 25 24 23 23 23 22 22 24 27 28 27 26 24 24 27 28 28 27 29 29 27 23 20 17 15 12 9 7 5 5 6 5 5 5
22 26 35 39 40 40 37 33 31 29 28 28 26 24 23 24 27 28 23 24 29 30 30 27 28 28 29 29 29 25 22 18 16 14 12 9 7 6 6 6 6 6 5
18 23 32 37 40 43 39 36 36 33 30 30 29 26 25 25 26 26 25 26 26 28 28 28 27 30 29 28 25 25 14 14 15 14 13 11 9 9 8 9 8 8 7
17 24 28 37 40 42 43 39 39 36 33 33 33 31 29 27 27 26 25 26 27 28 27 28 30 29 31 30 28 14 11 8 19 16 16 14 13 12 11 10 9 9 9
11 22 31 31 42 43 48 43 42 42 41 39 36 34 32 30 29 27 24 24 24 27 28 28 28 28 28 30 28 14 9 10 11 11 18 16 14 12 11 10 9 9 8
8 11 29 31 42 44 45 46 43 42 40 39 39 36 34 33 30 29 29 27 26 27 27 29 28 27 25 27 29 25 12 14 12 11 12 19 17 16 14 12 11 9 8
11 4 15 24 36 41 42 48 47 46 45 43 42 41 39 37 35 32 29 28 27 28 29 27 27 25 21 25 24 23 15 16 14 11 10 16 16 18 16 14 12 11 11
Wind_Direction
215 206 207 202 195 194 182 181 181 205 212 220 223 223 224 219 214 216 214 215 210 197 191 186 178 172 163 154 146 144 141 135 132 132 133 135 135 134 132 133 130 127 126
208 208 201 197 195 195 183 179 194 202 210 218 220 221 224 220 219 216 220 219 207 201 194 190 179 171 162 156 154 149 143 138 133 133 134 137 137 135 135 134 132 130 130
209 200 196 196 196 194 181 188 200 209 220 225 218 212 211 213 212 214 218 215 214 206 200 192 181 171 166 160 156 151 145 140 137 133 128 127 133 137 137 138 133 132 130
197 195 194 198 198 196 189 192 204 211 214 220 214 212 213 218 221 217 213 218 213 209 203 193 183 174 167 161 157 152 148 142 140 129 124 126 126 131 135 137 136 134 132
192 191 199 197 204 204 203 203 205 216 220 219 216 218 223 225 220 215 216 202 222 217 207 195 178 173 166 161 156 152 149 145 142 126 130 132 131 133 130 132 132 134 133
192 193 197 204 211 213 212 209 211 218 223 223 224 222 226 226 224 209 227 239 256 221 206 193 173 169 162 157 153 150 148 145 135 134 135 136 136 136 137 136 134 132 130
193 199 202 213 219 223 221 223 216 218 227 228 227 227 232 233 228 223 223 218 212 236 207 191 166 156 150 149 149 145 146 147 138 136 138 138 136 137 135 135 134 133 127
203 202 210 217 225 226 227 219 216 221 230 232 231 230 233 235 230 232 227 227 227 222 204 192 163 167 161 149 145 148 148 150 141 138 137 137 139 140 141 137 135 132 129
204 206 213 217 220 215 214 214 217 222 227 233 234 231 229 229 231 225 222 231 224 212 217 174 182 170 169 156 148 151 153 155 147 143 138 137 137 133 131 130 130 129 129
205 208 210 214 207 205 218 214 214 229 226 228 232 230 226 231 242 240 231 213 208 140 141 137 141 142 152 154 149 159 160 152 138 133 131 136 136 133 130 133 135 138 140
206 208 210 206 199 190 205 217 215 217 210 217 226 222 213 217 230 255 245 217 193 171 159 150 147 154 150 150 156 153 148 138 132 128 125 143 139 145 148 147 147 151 153
208 207 208 203 200 202 201 199 213 204 191 195 216 203 194 182 171 18 160 185 173 173 155 160 162 157 165 168 160 158 158 151 145 143 128 140 153 154 160 156 156 157 162
209 210 209 206 207 213 209 207 198 191 187 207 210 191 184 176 189 193 131 117 169 146 157 153 155 154 154 148 144 142 134 138 131 130 135 129 141 172 175 179 182 183 189
213 210 211 207 208 211 203 194 200 182 188 203 177 169 192 190 156 143 177 143 135 158 156 157 157 148 136 137 142 145 140 142 143 144 144 145 135 132 143 144 149 167 183
214 212 211 208 209 214 200 189 190 185 194 178 172 167 162 174 183 178 173 179 177 168 154 152 151 146 144 147 151 144 131 130 142 147 148 156 147 118 109 109 114 121 133
216 212 210 209 207 212 196 191 194 189 189 186 190 185 194 204 197 189 185 182 184 163 163 157 155 151 150 152 155 152 144 135 136 153 158 156 135 123 110 105 104 105 106
223 214 209 208 206 206 194 189 192 185 191 197 195 197 190 186 190 186 188 189 183 168 159 153 153 156 157 155 154 156 156 151 152 158 157 157 135 121 114 109 106 104 107
224 216 212 211 207 204 200 191 192 184 185 188 184 181 176 179 179 178 175 178 175 162 161 160 161 163 160 158 157 157 158 158 160 160 155 145 133 131 140 132 127 111 107
229 215 214 213 208 204 202 193 189 183 183 182 171 162 157 163 166 170 173 172 166 164 164 165 166 168 165 163 162 161 164 164 163 165 166 163 162 160 146 142 136 133 120
234 222 211 217 206 202 199 193 191 186 183 180 173 166 156 154 158 159 158 157 158 165 170 172 173 170 171 168 162 155 156 161 165 171 174 176 180 173 158 154 155 159 154
229 222 214 216 210 203 199 192 192 192 185 182 180 175 170 165 164 168 169 171 171 174 181 183 178 176 169 172 167 157 155 159 164 176 183 189 194 189 178 179 180 178 184
212 224 222 218 220 209 204 195 196 193 190 186 183 182 181 181 182 186 184 177 178 179 181 181 182 174 170 165 166 161 152 175 190 189 193 197 197 195 192 194 195 195 201
213 210 212 222 222 214 202 195 199 196 193 190 190 190 186 184 186 187 186 184 179 182 186 187 187 188 183 177 173 163 157 180 190 199 198 197 198 200 200 202 205 204 209
244 215 211 207 224 219 208 204 203 202 195 197 197 192 189 187 186 187 189 192 191 188 188 191 191 195 195 187 181 178 186 194 170 185 206 205 204 207 211 211 215 220 227
315 248 213 215 214 223 214 208 206 205 205 200 197 196 193 191 191 192 190 192 195 196 193 194 192 194 200 199 196 190 186 172 168 163 185 204 205 210 213 217 223 227 233
11 267 220 211 209 220 221 209 209 207 207 206 201 196 197 195 195 195 197 196 196 196 196 196 196 193 202 205 207 201 196 180 183 176 169 189 199 204 208 215 220 225 227